INMARSAT 3-F5

Last updated on Thu Oct 30 2025 00:02:47 GMT+0000 (Coordinated Universal Time)

1 25153U 98006B 25302.24627328 -.00000277 00000+0 00000+0 0 9990 2 25153 9.1737 55.5033 0005052 169.3643 207.6338 1.00268396101589
UTC large
Height (km)
Speed (km/s)
/
Latitude / Longitude
Inclination (degrees)
Orbital Period (minutes)
Azimuth
Elevation
Range (km)
Doppler Factor

Next 0 passes for location: London (51.5072 / 0.1276)

Sorry there are no passes over London.